Tracking 31027 objects as of 19-Jul-2025
HD Live streaming from Space Station
objects crossing your sky now

THORAD DELTA 1 DEB

Track THORAD DELTA 1 DEB now!
10-day predictions


NORAD ID: 8561
Int'l Code: 1974-089CY
Perigee: 1,343.5 km
Apogee: 1,455.8 km
Inclination: 101.5 °
Period: 113.6 minutes
Semi major axis: 7770 km
RCS: 0.0788 m2 (small)
Launch date: November 15, 1974
Source: United States (US)
Launch site: AIR FORCE WESTERN TEST RANGE (AFWTR)

Note: This is SATELLITE DEBRIS
Your satellite tracking list
NUSAT-20 (GRACE)
Track 1 satellite(s)




NASA's NSSDC Master Catalog

Two Line Element Set (TLE):
1 08561U 74089CY  25199.57778176  .00000022  00000-0  34417-3 0  9998
2 08561 101.5265 238.7533 0072287 116.7791  37.9774 12.67407281333049
Source of the keplerian elements: AFSPC